CZ-3B DEB, 40179

Orbit data source: Space-Track

CZ-3B DEB, 40179 is space debris in HEO originally from a launch on Mon, 19 Dec 2011 UTC launched from the Xichang Space Center, China (XSC). Debris objects in space refer to the collection of defunct objects orbiting the Earth. Examples of debris include non-operational satellites, rocket bodies, and fragments generated from explosions, collisions, or faulty payload assembly.

Loading next visibility...
Identifier
40179, 2011-077C
Orbit
HEO
Country
Flag of CNCN / PRC
Related business
Manufacturer
CALT
Mission
Spacecraft
Bus & Motor
Unknown
Mass
Unknown
Launch date (UTC)
2011-12-19 (14 years ago)
Launch vehicle
Unknown
Launch site
Xichang Space Center, China (XSC)
Object type
Payload
Rocket body
Debris
Shape & HBR
Unknown shape, 0.3 m
Radar Cross Section
Medium (>0.1 m² and <1 m²)

Expand to show TLE details & history
Last TLE update: 5 days ago

TLE from 5 days ago
0 CZ-3B DEB
1 40179U 11077C   26031.13737476  .00000048  00000-0  67340-2 0  9991
2 40179  26.3541 335.7652 7416732  84.7503 347.9951  1.91905813 85471
Epoch: 2026-01-31T03:17Z
TLE epoch observation values (Epoch: 2026-01-31T03:17:49.179Z)
Latitude
-0.00002°
Longitude
155.95434°
Altitude
5,181.827 km
Speed
7.375 km/s
True Right ascension
22h 23m 05s
True Declination
0° 00' 00"
Sunlit
Object was in daylight at epoch
Visualization orbit readout
Latitude
Unknown
Longitude
Unknown
Altitude
Unknown
Speed
Unknown
Apparent Right ascension
Unknown
Apparent Declination
Unknown
Sunlit
N/A
Visualization observer readout
Local Sidereal Time
04:37:58
Azimuth
Unknown
Elevation
Unknown
Doppler factor
Unknown
Orbital elements
Apogee altitude
41,268.951 km
Perigee altitude
688.929 km
Semi-major axis
27,357.077 km
Eccentricity
0.74167
Inclination
26.3541°
RAAN
335.7652°
Arg. of periapsis
84.7503°
True anomaly
275.75748°
Mean anomaly
347.9951°
Eccentric anomaly
321.59901°
Mean motion
0.47967 °/min
Orbital period
750.52 mins
BSTAR
0.006734
Loading maneuver chart data...
Computing Atmospheric mass density...
Loading historical data...
Loading historical data...
Loading historical data...
Loading historical data...
Loading historical data...
Loading historical data...
Loading historical data...

Documentation

Showing up to 5 results
|